Year,Month,Day,Hour,Minute,Value (Times are PST for temperature in C)
2014,06,26,07,49,16.50
2014,06,26,07,50,16.60
2014,06,26,07,51,16.70
2014,06,26,07,52,16.70
2014,06,26,07,53,16.80
2014,06,26,07,54,16.80
2014,06,26,07,55,16.80
2014,06,26,07,56,16.90
2014,06,26,07,57,16.90
2014,06,26,07,58,16.90
2014,06,26,07,59,17.00
2014,06,26,08,00,17.00
2014,06,26,08,01,17.10
2014,06,26,08,02,17.10
2014,06,26,08,03,17.10
2014,06,26,08,04,17.10
2014,06,26,08,05,17.10
2014,06,26,08,06,17.20
2014,06,26,08,07,17.20
2014,06,26,08,08,17.20
2014,06,26,08,09,17.30
2014,06,26,08,10,17.30
2014,06,26,08,11,17.30
2014,06,26,08,12,17.40
2014,06,26,08,13,17.40
2014,06,26,08,14,17.40
2014,06,26,08,15,17.40
2014,06,26,08,16,17.40
2014,06,26,08,17,17.40
2014,06,26,08,18,17.40
2014,06,26,08,19,17.40
2014,06,26,08,20,17.50
2014,06,26,08,21,17.50
2014,06,26,08,22,17.50
2014,06,26,08,23,17.60
2014,06,26,08,24,17.60
2014,06,26,08,25,17.60
2014,06,26,08,26,17.70
2014,06,26,08,27,17.70
2014,06,26,08,28,17.70
2014,06,26,08,29,17.70
2014,06,26,08,30,17.70
2014,06,26,08,31,17.80
2014,06,26,08,32,17.80
2014,06,26,08,33,17.80
2014,06,26,08,34,17.80
2014,06,26,08,35,17.90
2014,06,26,08,36,17.90
2014,06,26,08,37,18.00
2014,06,26,08,38,18.00
2014,06,26,08,39,18.00
2014,06,26,08,40,18.00
2014,06,26,08,41,18.00
2014,06,26,08,42,18.00
2014,06,26,08,43,18.10
2014,06,26,08,44,18.10
2014,06,26,08,45,18.10
2014,06,26,08,46,18.10
2014,06,26,08,47,18.10
2014,06,26,08,48,18.10
2014,06,26,08,49,18.10
2014,06,26,08,50,18.10
2014,06,26,08,51,18.20
2014,06,26,08,52,18.20
2014,06,26,08,53,18.20
2014,06,26,08,54,18.30
2014,06,26,08,55,18.30
2014,06,26,08,56,18.30
2014,06,26,08,57,18.30
2014,06,26,08,58,18.30
2014,06,26,08,59,18.30
2014,06,26,09,00,18.40
2014,06,26,09,01,18.40
2014,06,26,09,02,18.40
2014,06,26,09,03,18.40
2014,06,26,09,04,18.40
2014,06,26,09,05,18.50
2014,06,26,09,06,18.50
2014,06,26,09,07,18.60
2014,06,26,09,08,18.60
2014,06,26,09,09,18.70
2014,06,26,09,10,18.80
2014,06,26,09,11,18.80
2014,06,26,09,12,18.90
2014,06,26,09,13,18.90
2014,06,26,09,14,18.90
2014,06,26,09,15,18.90
2014,06,26,09,16,18.90
2014,06,26,09,17,18.90
2014,06,26,09,18,18.90
2014,06,26,09,19,18.90
2014,06,26,09,20,18.90
2014,06,26,09,21,18.90
2014,06,26,09,22,18.90
2014,06,26,09,23,18.90
2014,06,26,09,24,19.00
2014,06,26,09,25,19.00
2014,06,26,09,26,19.00
2014,06,26,09,27,19.00
2014,06,26,09,28,19.10
2014,06,26,09,29,19.10
2014,06,26,09,30,19.10
2014,06,26,09,31,19.20
2014,06,26,09,32,19.20
2014,06,26,09,33,19.20
2014,06,26,09,34,19.30
2014,06,26,09,35,19.30
2014,06,26,09,36,19.50
2014,06,26,09,37,19.60
2014,06,26,09,38,19.80
2014,06,26,09,39,20.00
2014,06,26,09,40,20.10
2014,06,26,09,41,20.20
2014,06,26,09,42,20.20
2014,06,26,09,43,20.10
2014,06,26,09,44,20.10
2014,06,26,09,45,20.10
2014,06,26,09,46,20.10
2014,06,26,09,47,20.10
2014,06,26,09,48,20.00
2014,06,26,09,49,20.00
2014,06,26,09,50,20.00
2014,06,26,09,51,20.10
2014,06,26,09,52,20.20
2014,06,26,09,53,20.30
2014,06,26,09,54,20.50
2014,06,26,09,55,20.50
2014,06,26,09,56,20.70
2014,06,26,09,57,20.80
2014,06,26,09,58,20.90
2014,06,26,09,59,21.00
2014,06,26,10,00,21.10
2014,06,26,10,01,21.10
2014,06,26,10,02,21.20
2014,06,26,10,03,21.20
2014,06,26,10,04,21.20
2014,06,26,10,05,21.30
2014,06,26,10,06,21.30
2014,06,26,10,07,21.40
2014,06,26,10,08,21.50
2014,06,26,10,09,21.50
2014,06,26,10,10,21.60
2014,06,26,10,11,21.60
2014,06,26,10,12,21.60
2014,06,26,10,13,21.60
2014,06,26,10,14,21.60
2014,06,26,10,15,21.70
2014,06,26,10,16,21.70
2014,06,26,10,17,21.80
2014,06,26,10,18,21.80
2014,06,26,10,19,21.80
2014,06,26,10,20,21.80
2014,06,26,10,21,21.80
2014,06,26,10,22,21.80
2014,06,26,10,23,21.90
2014,06,26,10,24,21.90
2014,06,26,10,25,22.00
2014,06,26,10,26,22.00
2014,06,26,10,27,22.10
2014,06,26,10,28,22.10
2014,06,26,10,29,22.10
2014,06,26,10,30,22.10
2014,06,26,10,31,22.10
2014,06,26,10,32,22.10
2014,06,26,10,33,22.00
2014,06,26,10,34,22.00
2014,06,26,10,35,22.00
2014,06,26,10,36,22.00
2014,06,26,10,37,22.00
2014,06,26,10,38,22.00
2014,06,26,10,39,22.00
2014,06,26,10,40,22.10
2014,06,26,10,41,22.10
2014,06,26,10,42,22.10
2014,06,26,10,43,22.10
2014,06,26,10,44,22.00
2014,06,26,10,45,22.00
2014,06,26,10,46,21.90
2014,06,26,10,47,21.90
2014,06,26,10,48,21.90
2014,06,26,10,49,21.90
2014,06,26,10,50,21.90
2014,06,26,10,51,21.90
2014,06,26,10,52,21.80
2014,06,26,10,53,21.80
2014,06,26,10,54,21.80
2014,06,26,10,55,21.80
2014,06,26,10,56,21.80
2014,06,26,10,57,21.90
2014,06,26,10,58,22.00
2014,06,26,10,59,22.10
2014,06,26,11,00,22.00
2014,06,26,11,01,21.90
2014,06,26,11,02,21.80
2014,06,26,11,03,21.80
2014,06,26,11,04,21.80
2014,06,26,11,05,21.70
2014,06,26,11,06,21.60
2014,06,26,11,07,21.40
2014,06,26,11,08,21.30
2014,06,26,11,09,21.30
2014,06,26,11,10,21.20
2014,06,26,11,11,21.20
2014,06,26,11,12,21.30
2014,06,26,11,13,21.30
2014,06,26,11,14,21.30
2014,06,26,11,15,21.40
2014,06,26,11,16,21.40
2014,06,26,11,17,21.50
2014,06,26,11,18,21.50
2014,06,26,11,19,21.60
2014,06,26,11,20,21.60
2014,06,26,11,21,21.60
2014,06,26,11,22,21.70
2014,06,26,11,23,21.70
2014,06,26,11,24,21.70
2014,06,26,11,25,21.60
2014,06,26,11,26,21.50
2014,06,26,11,27,21.50
2014,06,26,11,28,21.50
2014,06,26,11,29,21.40
2014,06,26,11,30,21.40
2014,06,26,11,31,21.50
2014,06,26,11,32,21.60
2014,06,26,11,33,21.70
2014,06,26,11,34,21.80
2014,06,26,11,35,21.90
2014,06,26,11,36,22.00
2014,06,26,11,37,22.20
2014,06,26,11,38,22.20
2014,06,26,11,39,22.30
2014,06,26,11,40,22.20
2014,06,26,11,41,22.20
2014,06,26,11,42,22.00
2014,06,26,11,43,21.70
2014,06,26,11,44,21.50
2014,06,26,11,45,21.40
2014,06,26,11,46,21.30
2014,06,26,11,47,21.30
2014,06,26,11,48,21.30
2014,06,26,11,49,21.40
2014,06,26,11,50,21.50
2014,06,26,11,51,21.60
2014,06,26,11,52,21.60
2014,06,26,11,53,21.70
2014,06,26,11,54,21.70
2014,06,26,11,55,21.80
2014,06,26,11,56,21.80
2014,06,26,11,57,21.80
2014,06,26,11,58,21.90
2014,06,26,11,59,21.90
2014,06,26,12,00,22.00
2014,06,26,12,01,22.10
2014,06,26,12,02,22.20
2014,06,26,12,03,22.30
2014,06,26,12,04,22.40
2014,06,26,12,05,22.50
2014,06,26,12,06,22.60
2014,06,26,12,07,22.60
2014,06,26,12,08,22.60
2014,06,26,12,09,22.60
2014,06,26,12,10,22.60
2014,06,26,12,11,22.60
2014,06,26,12,12,22.60
2014,06,26,12,13,22.60
2014,06,26,12,14,22.60
2014,06,26,12,15,22.60
2014,06,26,12,16,22.60
2014,06,26,12,17,22.50
2014,06,26,12,18,22.40
2014,06,26,12,19,22.30
2014,06,26,12,20,22.30
2014,06,26,12,21,22.30
2014,06,26,12,22,22.30
2014,06,26,12,23,22.40
2014,06,26,12,24,22.40
2014,06,26,12,25,22.50
2014,06,26,12,26,22.50
2014,06,26,12,27,22.60
2014,06,26,12,28,22.60
2014,06,26,12,29,22.60
2014,06,26,12,30,22.70
2014,06,26,12,31,22.70
2014,06,26,12,32,22.70
2014,06,26,12,33,22.70
2014,06,26,12,34,22.70
2014,06,26,12,35,22.70
2014,06,26,12,36,22.70
2014,06,26,12,37,22.70
2014,06,26,12,38,22.80
2014,06,26,12,39,22.80
2014,06,26,12,40,22.90
2014,06,26,12,41,22.90
2014,06,26,12,42,22.90
2014,06,26,12,43,22.80
2014,06,26,12,44,22.80
2014,06,26,12,45,22.80
2014,06,26,12,46,22.80
2014,06,26,12,47,22.80
2014,06,26,12,48,22.80
2014,06,26,12,49,22.80
2014,06,26,12,50,22.80
2014,06,26,12,51,22.80
2014,06,26,12,52,22.80
2014,06,26,12,53,22.80
2014,06,26,12,54,22.80
2014,06,26,12,55,22.80
2014,06,26,12,56,22.80
2014,06,26,12,57,22.80
2014,06,26,12,58,22.90
2014,06,26,12,59,23.00
2014,06,26,13,00,23.00
2014,06,26,13,01,23.10
2014,06,26,13,02,23.10
2014,06,26,13,03,23.10
2014,06,26,13,04,23.10
2014,06,26,13,05,23.20
2014,06,26,13,06,23.20
2014,06,26,13,07,23.20
2014,06,26,13,08,23.20
2014,06,26,13,09,23.30
2014,06,26,13,10,23.30
2014,06,26,13,11,23.40
2014,06,26,13,12,23.40
2014,06,26,13,13,23.50
2014,06,26,13,14,23.50
2014,06,26,13,15,23.60
2014,06,26,13,16,23.70
2014,06,26,13,17,23.70
2014,06,26,13,18,23.70
2014,06,26,13,19,23.80
2014,06,26,13,20,23.80
2014,06,26,13,21,23.90
2014,06,26,13,22,24.00
2014,06,26,13,23,24.00
2014,06,26,13,24,24.00
2014,06,26,13,25,24.00
2014,06,26,13,26,24.00
2014,06,26,13,27,24.00
2014,06,26,13,28,24.00
2014,06,26,13,29,24.00
2014,06,26,13,30,24.00
2014,06,26,13,31,23.90
2014,06,26,13,32,23.90
2014,06,26,13,33,23.80
2014,06,26,13,34,23.80
2014,06,26,13,35,23.80
2014,06,26,13,36,23.80
2014,06,26,13,37,23.80
2014,06,26,13,38,23.80
2014,06,26,13,39,23.80
2014,06,26,13,40,23.80
2014,06,26,13,41,23.80
2014,06,26,13,42,23.80
2014,06,26,13,43,23.80
2014,06,26,13,44,23.80
2014,06,26,13,45,23.80
2014,06,26,13,46,23.80
2014,06,26,13,47,23.80
2014,06,26,13,48,23.80
2014,06,26,13,49,23.80
2014,06,26,13,50,23.80
2014,06,26,13,51,23.80
2014,06,26,13,52,23.80
2014,06,26,13,53,23.80
2014,06,26,13,54,23.90
2014,06,26,13,55,23.90
2014,06,26,13,56,23.90
2014,06,26,13,57,23.90
2014,06,26,13,58,23.90
2014,06,26,13,59,24.00
2014,06,26,14,00,24.10
2014,06,26,14,01,24.10
2014,06,26,14,02,24.20
2014,06,26,14,03,24.20
2014,06,26,14,04,24.20
2014,06,26,14,05,24.20
2014,06,26,14,06,24.20
2014,06,26,14,07,24.20
2014,06,26,14,08,24.20
2014,06,26,14,09,24.20
2014,06,26,14,10,24.30
2014,06,26,14,11,24.30
2014,06,26,14,12,24.20
2014,06,26,14,13,24.20
2014,06,26,14,14,24.20
2014,06,26,14,15,24.20
2014,06,26,14,16,24.20
2014,06,26,14,17,24.20
2014,06,26,14,18,24.10
2014,06,26,14,19,24.10
2014,06,26,14,20,24.10
2014,06,26,14,21,24.10
2014,06,26,14,22,24.00
2014,06,26,14,23,24.00
2014,06,26,14,24,24.00
2014,06,26,14,25,24.00
2014,06,26,14,26,24.10
2014,06,26,14,27,24.10
2014,06,26,14,28,24.20
2014,06,26,14,29,24.30
2014,06,26,14,30,24.40
2014,06,26,14,31,24.50
2014,06,26,14,32,24.60
2014,06,26,14,33,24.60
2014,06,26,14,34,24.50
2014,06,26,14,35,24.40
2014,06,26,14,36,24.40
2014,06,26,14,37,24.30
2014,06,26,14,38,24.30
2014,06,26,14,39,24.20
2014,06,26,14,40,24.10
2014,06,26,14,41,24.00
2014,06,26,14,42,23.90
2014,06,26,14,43,23.90
2014,06,26,14,44,23.90
2014,06,26,14,45,23.80
2014,06,26,14,46,23.80
2014,06,26,14,47,23.80
2014,06,26,14,48,23.90
2014,06,26,14,49,24.00
2014,06,26,14,50,24.10
2014,06,26,14,51,24.20
2014,06,26,14,52,24.20
2014,06,26,14,53,24.30
2014,06,26,14,54,24.40
2014,06,26,14,55,24.50
2014,06,26,14,56,24.60
2014,06,26,14,57,24.60
2014,06,26,14,58,24.60
2014,06,26,14,59,24.60
2014,06,26,15,00,24.60
2014,06,26,15,01,24.60
2014,06,26,15,02,24.60
2014,06,26,15,03,24.70
2014,06,26,15,04,24.80
2014,06,26,15,05,24.80
2014,06,26,15,06,24.80
2014,06,26,15,07,24.90
2014,06,26,15,08,24.90
2014,06,26,15,09,24.90
2014,06,26,15,10,24.90
2014,06,26,15,11,24.90
2014,06,26,15,12,24.90
2014,06,26,15,13,24.90
2014,06,26,15,14,24.90
2014,06,26,15,15,24.90
2014,06,26,15,16,24.90
2014,06,26,15,17,24.90
2014,06,26,15,18,24.90
2014,06,26,15,19,25.00
2014,06,26,15,20,25.00
2014,06,26,15,21,25.10
2014,06,26,15,22,25.10
2014,06,26,15,23,25.10
2014,06,26,15,24,25.20
2014,06,26,15,25,25.10
2014,06,26,15,26,25.00
2014,06,26,15,27,24.90
2014,06,26,15,28,24.80
2014,06,26,15,29,24.70
2014,06,26,15,30,24.60
2014,06,26,15,31,24.60
2014,06,26,15,32,24.60
2014,06,26,15,33,24.60
2014,06,26,15,34,24.70
2014,06,26,15,35,24.70
2014,06,26,15,36,24.70
2014,06,26,15,37,24.70
2014,06,26,15,38,24.70
2014,06,26,15,39,24.70
2014,06,26,15,40,24.70
2014,06,26,15,41,24.70
2014,06,26,15,42,24.70
2014,06,26,15,43,24.70
2014,06,26,15,44,24.70
2014,06,26,15,45,24.70
2014,06,26,15,46,24.80
2014,06,26,15,47,24.80
2014,06,26,15,48,24.80
2014,06,26,15,49,24.80
2014,06,26,15,50,24.90
2014,06,26,15,51,24.90
2014,06,26,15,52,24.90
2014,06,26,15,53,25.00
2014,06,26,15,54,25.00
2014,06,26,15,55,24.90
2014,06,26,15,56,24.80
2014,06,26,15,57,24.80
2014,06,26,15,58,24.70
2014,06,26,15,59,24.60
2014,06,26,16,00,24.50
2014,06,26,16,01,24.50
2014,06,26,16,02,24.40
2014,06,26,16,03,24.40
2014,06,26,16,04,24.40
2014,06,26,16,05,24.50
2014,06,26,16,06,24.50
2014,06,26,16,07,24.50
2014,06,26,16,08,24.50
2014,06,26,16,09,24.50
2014,06,26,16,10,24.40
2014,06,26,16,11,24.30
2014,06,26,16,12,24.20
2014,06,26,16,13,24.10
2014,06,26,16,14,24.00
2014,06,26,16,15,23.90
2014,06,26,16,16,23.80
2014,06,26,16,17,23.80
2014,06,26,16,18,23.80
2014,06,26,16,19,23.80
2014,06,26,16,20,23.70
2014,06,26,16,21,23.70
2014,06,26,16,22,23.70
2014,06,26,16,23,23.60
2014,06,26,16,24,23.60
2014,06,26,16,25,23.50
2014,06,26,16,26,23.40
2014,06,26,16,27,23.30
2014,06,26,16,28,23.20
2014,06,26,16,29,23.20
2014,06,26,16,30,23.10
2014,06,26,16,31,23.00
2014,06,26,16,32,22.80
2014,06,26,16,33,22.70
2014,06,26,16,34,22.70
2014,06,26,16,35,22.70
2014,06,26,16,36,22.70
2014,06,26,16,37,22.70
2014,06,26,16,38,22.60
2014,06,26,16,39,22.60
2014,06,26,16,40,22.50
2014,06,26,16,41,22.50
2014,06,26,16,42,22.50
2014,06,26,16,43,22.50
2014,06,26,16,44,22.60
2014,06,26,16,45,22.60
2014,06,26,16,46,22.60
2014,06,26,16,47,22.70
2014,06,26,16,48,22.70
2014,06,26,16,49,22.70
2014,06,26,16,50,22.60
2014,06,26,16,51,22.60
2014,06,26,16,52,22.60
2014,06,26,16,53,22.60
2014,06,26,16,54,22.60
2014,06,26,16,55,22.60
2014,06,26,16,56,22.60
2014,06,26,16,57,22.60
2014,06,26,16,58,22.70
2014,06,26,16,59,22.70
2014,06,26,17,00,22.70
2014,06,26,17,01,22.60
2014,06,26,17,02,22.60
2014,06,26,17,03,22.60
2014,06,26,17,04,22.60
2014,06,26,17,05,22.50
2014,06,26,17,06,22.50
2014,06,26,17,07,22.50
2014,06,26,17,08,22.60
2014,06,26,17,09,22.60
2014,06,26,17,10,22.50
2014,06,26,17,11,22.50
2014,06,26,17,12,22.50
2014,06,26,17,13,22.50
2014,06,26,17,14,22.60
2014,06,26,17,15,22.60
2014,06,26,17,16,22.60
2014,06,26,17,17,22.60
2014,06,26,17,18,22.60
2014,06,26,17,19,22.70
2014,06,26,17,20,22.70
2014,06,26,17,21,22.70
2014,06,26,17,22,22.70
2014,06,26,17,23,22.70
2014,06,26,17,24,22.70
2014,06,26,17,25,22.70
2014,06,26,17,26,22.70
2014,06,26,17,27,22.70
2014,06,26,17,28,22.70
2014,06,26,17,29,22.70
2014,06,26,17,30,22.80
2014,06,26,17,31,22.90
2014,06,26,17,32,22.90
2014,06,26,17,33,22.90
2014,06,26,17,34,23.00
2014,06,26,17,35,23.00
2014,06,26,17,36,23.00
2014,06,26,17,37,23.10
2014,06,26,17,38,23.10
2014,06,26,17,39,23.10
2014,06,26,17,40,23.10
2014,06,26,17,41,23.10
2014,06,26,17,42,23.00
2014,06,26,17,43,22.90
2014,06,26,17,44,22.90
2014,06,26,17,45,22.80
2014,06,26,17,46,22.70
2014,06,26,17,47,22.70
2014,06,26,17,48,22.60
2014,06,26,17,49,22.50
2014,06,26,17,50,22.40
2014,06,26,17,51,22.30
2014,06,26,17,52,22.20
2014,06,26,17,53,22.10
2014,06,26,17,54,22.10
2014,06,26,17,55,22.10
2014,06,26,17,56,22.10
2014,06,26,17,57,22.10
2014,06,26,17,58,22.00
2014,06,26,17,59,21.90
2014,06,26,18,00,21.90
2014,06,26,18,01,21.90
2014,06,26,18,02,21.90
2014,06,26,18,03,21.90
2014,06,26,18,04,21.90
2014,06,26,18,05,22.00
2014,06,26,18,06,22.00
2014,06,26,18,07,22.00
2014,06,26,18,08,22.00
2014,06,26,18,09,22.00
2014,06,26,18,10,22.10
2014,06,26,18,11,22.10
2014,06,26,18,12,22.20
2014,06,26,18,13,22.40
2014,06,26,18,14,22.50
2014,06,26,18,15,22.60
2014,06,26,18,16,22.60
2014,06,26,18,17,22.60
2014,06,26,18,18,22.50
2014,06,26,18,19,22.40
2014,06,26,18,20,22.40
2014,06,26,18,21,22.40
2014,06,26,18,22,22.30
2014,06,26,18,23,22.30
2014,06,26,18,24,22.30
2014,06,26,18,25,22.30
2014,06,26,18,26,22.40
2014,06,26,18,27,22.40
2014,06,26,18,28,22.40
2014,06,26,18,29,22.40
2014,06,26,18,30,22.50
2014,06,26,18,31,22.40
2014,06,26,18,32,22.40
2014,06,26,18,33,22.40
2014,06,26,18,34,22.30
2014,06,26,18,35,22.30
2014,06,26,18,36,22.20
2014,06,26,18,37,22.20
2014,06,26,18,38,22.10
2014,06,26,18,39,22.10
2014,06,26,18,40,22.00
2014,06,26,18,41,22.00
2014,06,26,18,42,21.90
2014,06,26,18,43,21.90
2014,06,26,18,44,21.80
2014,06,26,18,45,21.80
2014,06,26,18,46,21.80
2014,06,26,18,47,21.70
2014,06,26,18,48,21.70
2014,06,26,18,49,21.70
2014,06,26,18,50,21.70
2014,06,26,18,51,21.70
2014,06,26,18,52,21.70
2014,06,26,18,53,21.70
2014,06,26,18,54,21.70
2014,06,26,18,55,21.60
2014,06,26,18,56,21.60
2014,06,26,18,57,21.60
2014,06,26,18,58,21.50
2014,06,26,18,59,21.50
2014,06,26,19,00,21.40
2014,06,26,19,01,21.40
2014,06,26,19,02,21.30
2014,06,26,19,03,21.30
2014,06,26,19,04,21.30
2014,06,26,19,05,21.20
2014,06,26,19,06,21.20
2014,06,26,19,07,21.20
2014,06,26,19,08,21.20
2014,06,26,19,09,21.10
2014,06,26,19,10,21.10
2014,06,26,19,11,21.10
2014,06,26,19,12,21.10
2014,06,26,19,13,21.10
2014,06,26,19,14,21.00
2014,06,26,19,15,21.00
2014,06,26,19,16,20.90
2014,06,26,19,17,20.90
2014,06,26,19,18,20.90
2014,06,26,19,19,20.80
2014,06,26,19,20,20.80
2014,06,26,19,21,20.70
2014,06,26,19,22,20.70
2014,06,26,19,23,20.70
2014,06,26,19,24,20.60
2014,06,26,19,25,20.50
2014,06,26,19,26,20.50
2014,06,26,19,27,20.40
2014,06,26,19,28,20.30
2014,06,26,19,29,20.30
2014,06,26,19,30,20.20
2014,06,26,19,31,20.20
2014,06,26,19,32,20.10
2014,06,26,19,33,20.10
2014,06,26,19,34,20.00
2014,06,26,19,35,19.90
2014,06,26,19,36,19.90
2014,06,26,19,37,19.80
2014,06,26,19,38,19.70
2014,06,26,19,39,19.70
2014,06,26,19,40,19.60
2014,06,26,19,41,19.60
2014,06,26,19,42,19.50
2014,06,26,19,43,19.50
2014,06,26,19,44,19.40
2014,06,26,19,45,19.40
2014,06,26,19,46,19.30
2014,06,26,19,47,19.30
2014,06,26,19,48,19.30
2014,06,26,19,49,19.30
2014,06,26,19,50,19.20
2014,06,26,19,51,19.20
2014,06,26,19,52,19.20
2014,06,26,19,53,19.10
2014,06,26,19,54,19.10
2014,06,26,19,55,19.10
2014,06,26,19,56,19.00
2014,06,26,19,57,19.00
2014,06,26,19,58,18.90
2014,06,26,19,59,18.90
2014,06,26,20,00,18.80
2014,06,26,20,01,18.80
2014,06,26,20,02,18.70
2014,06,26,20,03,18.70
2014,06,26,20,04,18.60
2014,06,26,20,05,18.60
2014,06,26,20,06,18.60
2014,06,26,20,07,18.60
2014,06,26,20,08,18.60
2014,06,26,20,09,18.50
2014,06,26,20,10,18.50
2014,06,26,20,11,18.50
2014,06,26,20,12,18.50
2014,06,26,20,13,18.50
2014,06,26,20,14,18.50
2014,06,26,20,15,18.40
2014,06,26,20,16,18.40
2014,06,26,20,17,18.30
2014,06,26,20,18,18.30
2014,06,26,20,19,18.30
2014,06,26,20,20,18.20
2014,06,26,20,21,18.20
2014,06,26,20,22,18.10
2014,06,26,20,23,18.10
2014,06,26,20,24,18.10
2014,06,26,20,25,18.00
2014,06,26,20,26,18.00
2014,06,26,20,27,17.90
2014,06,26,20,28,17.90
2014,06,26,20,29,17.90
2014,06,26,20,30,17.90
2014,06,26,20,31,17.90
2014,06,26,20,32,17.90
2014,06,26,20,33,17.80
2014,06,26,20,34,17.80
2014,06,26,20,35,17.70
2014,06,26,20,36,17.70
2014,06,26,20,37,17.70
2014,06,26,20,38,17.60
2014,06,26,20,39,17.60
2014,06,26,20,40,17.60
2014,06,26,20,41,17.60
2014,06,26,20,42,17.50
2014,06,26,20,43,17.50
2014,06,26,20,44,17.40
2014,06,26,20,45,17.40
2014,06,26,20,46,17.40
2014,06,26,20,47,17.40
2014,06,26,20,48,17.40
2014,06,26,20,49,17.40
2014,06,26,20,50,17.30
2014,06,26,20,51,17.30
2014,06,26,20,52,17.30
2014,06,26,20,53,17.30
2014,06,26,20,54,17.30
2014,06,26,20,55,17.30
2014,06,26,20,56,17.30
2014,06,26,20,57,17.30
2014,06,26,20,58,17.30
2014,06,26,20,59,17.30
2014,06,26,21,00,17.30
2014,06,26,21,01,17.30
2014,06,26,21,02,17.30
2014,06,26,21,03,17.30
2014,06,26,21,04,17.30
2014,06,26,21,05,17.30
2014,06,26,21,06,17.30
2014,06,26,21,07,17.30
2014,06,26,21,08,17.30
2014,06,26,21,09,17.30
2014,06,26,21,10,17.30
2014,06,26,21,11,17.30
2014,06,26,21,12,17.30
2014,06,26,21,13,17.30
2014,06,26,21,14,17.30
2014,06,26,21,15,17.30
2014,06,26,21,16,17.30
2014,06,26,21,17,17.30
2014,06,26,21,18,17.30
2014,06,26,21,19,17.30
2014,06,26,21,20,17.30
2014,06,26,21,21,17.30
2014,06,26,21,22,17.30
2014,06,26,21,23,17.30
2014,06,26,21,24,17.30
2014,06,26,21,25,17.30
2014,06,26,21,26,17.30
2014,06,26,21,27,17.30
2014,06,26,21,28,17.30
2014,06,26,21,29,17.30
2014,06,26,21,30,17.20
2014,06,26,21,31,17.20
2014,06,26,21,32,17.20
2014,06,26,21,33,17.20
2014,06,26,21,34,17.20
2014,06,26,21,35,17.20
2014,06,26,21,36,17.20
2014,06,26,21,37,17.20
2014,06,26,21,38,17.20
2014,06,26,21,39,17.20
2014,06,26,21,40,17.20
2014,06,26,21,41,17.20
2014,06,26,21,42,17.20
2014,06,26,21,43,17.20
2014,06,26,21,44,17.20
2014,06,26,21,45,17.20
2014,06,26,21,46,17.10
2014,06,26,21,47,17.10
2014,06,26,21,48,17.10
2014,06,26,21,49,17.10
2014,06,26,21,50,17.10
2014,06,26,21,51,17.10
2014,06,26,21,52,17.10
2014,06,26,21,53,17.10
2014,06,26,21,54,17.00
2014,06,26,21,55,17.00
2014,06,26,21,56,17.00
2014,06,26,21,57,17.00
2014,06,26,21,58,17.00
2014,06,26,21,59,17.00
2014,06,26,22,00,17.00
2014,06,26,22,01,16.90
2014,06,26,22,02,16.90
2014,06,26,22,03,16.90
2014,06,26,22,04,16.90
2014,06,26,22,05,16.90
2014,06,26,22,06,16.90
2014,06,26,22,07,16.90
2014,06,26,22,08,16.90
2014,06,26,22,09,16.90
2014,06,26,22,10,16.90
2014,06,26,22,11,16.90
2014,06,26,22,12,16.90
2014,06,26,22,13,16.90
2014,06,26,22,14,16.90
2014,06,26,22,15,16.90
2014,06,26,22,16,16.90
2014,06,26,22,17,16.90
2014,06,26,22,18,16.90
2014,06,26,22,19,16.90
2014,06,26,22,20,16.90
2014,06,26,22,21,16.90
2014,06,26,22,22,16.90
2014,06,26,22,23,16.90
2014,06,26,22,24,16.90
2014,06,26,22,25,16.90
2014,06,26,22,26,17.00
2014,06,26,22,27,17.00
2014,06,26,22,28,17.00
2014,06,26,22,29,17.00
2014,06,26,22,30,17.00
2014,06,26,22,31,17.00
2014,06,26,22,32,17.00
2014,06,26,22,33,17.00
2014,06,26,22,34,17.10
2014,06,26,22,35,17.10
2014,06,26,22,36,17.10
2014,06,26,22,37,17.10
2014,06,26,22,38,17.10
2014,06,26,22,39,17.10
2014,06,26,22,40,17.10
2014,06,26,22,41,17.10
2014,06,26,22,42,17.10
2014,06,26,22,43,17.10
2014,06,26,22,44,17.10
2014,06,26,22,45,17.10
2014,06,26,22,46,17.10
2014,06,26,22,47,17.10
2014,06,26,22,48,17.10
2014,06,26,22,49,17.10
2014,06,26,22,50,17.10
2014,06,26,22,51,17.10
2014,06,26,22,52,17.00
2014,06,26,22,53,17.00
2014,06,26,22,54,16.90
2014,06,26,22,55,16.80
2014,06,26,22,56,16.70
2014,06,26,22,57,16.70
2014,06,26,22,58,16.60
2014,06,26,22,59,16.60
2014,06,26,23,00,16.50
2014,06,26,23,01,16.50
2014,06,26,23,02,16.50
2014,06,26,23,03,16.40
2014,06,26,23,04,16.40
2014,06,26,23,05,16.40
2014,06,26,23,06,16.50
2014,06,26,23,07,16.50
2014,06,26,23,08,16.50
2014,06,26,23,09,16.50
2014,06,26,23,10,16.50
2014,06,26,23,11,16.50
2014,06,26,23,12,16.50
2014,06,26,23,13,16.50
2014,06,26,23,14,16.50
2014,06,26,23,15,16.60
2014,06,26,23,16,16.60
2014,06,26,23,17,16.60
2014,06,26,23,18,16.60
2014,06,26,23,19,16.60
2014,06,26,23,20,16.60
2014,06,26,23,21,16.60
2014,06,26,23,22,16.60
2014,06,26,23,23,16.60
2014,06,26,23,24,16.60
2014,06,26,23,25,16.60
2014,06,26,23,26,16.60
2014,06,26,23,27,16.60
2014,06,26,23,28,16.60
2014,06,26,23,29,16.50
2014,06,26,23,30,16.50
2014,06,26,23,31,16.50
2014,06,26,23,32,16.50
2014,06,26,23,33,16.50
2014,06,26,23,34,16.50
2014,06,26,23,35,16.50
2014,06,26,23,36,16.50
2014,06,26,23,37,16.50
2014,06,26,23,38,16.50
2014,06,26,23,39,16.50
2014,06,26,23,40,16.50
2014,06,26,23,41,16.50
2014,06,26,23,42,16.40
2014,06,26,23,43,16.40
2014,06,26,23,44,16.40
2014,06,26,23,45,16.40
2014,06,26,23,46,16.40
2014,06,26,23,47,16.40
2014,06,26,23,48,16.40
2014,06,26,23,49,16.40
2014,06,26,23,50,16.40
2014,06,26,23,51,16.40
2014,06,26,23,52,16.40
2014,06,26,23,53,16.40
2014,06,26,23,54,16.40
2014,06,26,23,55,16.40
2014,06,26,23,56,16.40
2014,06,26,23,57,16.40
2014,06,26,23,58,16.40
2014,06,26,23,59,16.40
